ISS (ZARYA)

Last updated on Tue Jan 14 2025 00:02:07 GMT+0000 (Coordinated Universal Time)

1 25544U 98067A 25013.37981078 .00013192 00000+0 23902-3 0 9998 2 25544 51.6381 353.8757 0002206 86.1902 273.9339 15.49966045491155
UTC large
Height (km)
Speed (km/s)
/
Latitude / Longitude
Inclination (degrees)
Orbital Period (minutes)
Azimuth
Elevation
Range (km)
Doppler Factor

Next 0 passes for location: London (51.5072 / 0.1276)

Sorry there are no passes over London.